Flag for Canada Weather past 2 weeks in Creston, British Columbia, Canada

Now
56 °F

Cool.


Feels Like: 52 °F
Forecast: 54 / 64 °F
Wind: 13 mph from Southeast

Location: Creston

Current Time: Jun 2, 2015 at 4:56:36 PM

Latest Report: Jun 2, 2015 at 4:00 PM


Visibility: N/A

Pressure: 29.96 "Hg

Humidity: 83%

Dew point: 50 °F

Location of CrestonLocation

Historic Weather in Creston — Graph

°F

Creston temperature yesterday

Maximum temperature yesterday: 78 °F (at 5:00 PM)
Minimum temperature yesterday: 56 °F (at 6:00 AM)
Average temperature yesterday: 66 °F

Past Weeks' High & Low Weather Summary

 TemperatureHumidityPressure
High84 °F (May 23, 4:00 PM)97% (May 31, 1:00 AM)30.18 "Hg (May 31, 1:00 AM)
Low49 °F (May 19, 5:00 AM)11% (May 23, 5:00 PM)29.72 "Hg (Jun 1, 6:00 PM)
Average64 °F56%29.96 "Hg
* Reported May 18 4:00 PM — Jun 2 4:00 PM, Creston, Weather by CustomWeather, © 2015

Note: Actual official high and low records may vary slightly from our data, if they occured in-between our weather recording intervals... More about our weather records

Advertising

Creston weather history for previous 24 hours

 ConditionsComfort  
Time TempWeatherWind HumidityBarometerVisibility
4:00 PM
Tue, Jun 2
56 °FCool.13 mph83%29.96 "HgN/A
3:00 PM55 °FCool.12 mph81%29.96 "HgN/A
2:00 PM55 °FCool.13 mph86%29.95 "HgN/A
1:00 PM55 °FCool.12 mph88%29.94 "HgN/A
12:00 PM55 °FCool.9 mph89%29.93 "HgN/A
11:00 AM55 °FCool.9 mph88%29.91 "HgN/A
10:00 AM55 °FCool.12 mph87%29.89 "HgN/A
9:00 AM55 °FCool.10 mph88%29.88 "HgN/A
8:00 AM54 °FCool.9 mph95%29.86 "HgN/A
7:00 AM56 °FCool.6 mph94%29.85 "HgN/A
6:00 AM57 °FCool.5 mph97%29.83 "HgN/A
5:00 AM57 °FCool.1 mph97%29.83 "HgN/A
4:00 AM57 °FCool.1 mph97%29.83 "HgN/A
3:00 AM58 °FCool.No wind96%29.83 "HgN/A
2:00 AM57 °FCool.No wind95%29.85 "HgN/A
1:00 AM58 °FCool.2 mph93%29.86 "HgN/A
12:00 AM60 °FCool.7 mph80%29.86 "HgN/A
11:00 PM
Mon, Jun 1
64 °FMild.5 mph65%29.82 "HgN/A
10:00 PM64 °FMild.7 mph63%29.78 "HgN/A
9:00 PM70 °FMild.7 mph46%29.78 "HgN/A
8:00 PM72 °FMild.5 mph43%29.75 "HgN/A
7:00 PM71 °FMild.7 mph50%29.74 "HgN/A
6:00 PM77 °FPleasantly warm.6 mph35%29.72 "HgN/A
5:00 PM78 °FPleasantly warm.5 mph31%29.73 "HgN/A
4:00 PM75 °FMild.6 mph43%29.75 "HgN/A
Weather by CustomWeather, © 2015

See weather overviewHow to use our weather pages